Flag for U.S.A. Weather past 2 weeks in Hartford, Connecticut, U.S.A.

Now
50 °F

Clear.


Feels Like: 47 °F
Forecast: 47 / 72 °F
Wind: 8 mph from Southeast

Location: Hartford-Brainard Airport

Current Time: Sep 18, 2014 at 1:52:58 AM

Latest Report: Sep 18, 2014 at 12:53 AM


Visibility: 10 mi

Pressure: 29.97 "Hg

Humidity: 93%

Dew point: 48 °F

Location of HartfordLocation

Historic Weather in Hartford — Graph

°F

Hartford temperature yesterday

Maximum temperature yesterday: 72 °F (at 3:53 PM)
Minimum temperature yesterday: 46 °F (at 5:53 AM)
Average temperature yesterday: 58 °F

Past Weeks' High & Low Weather Summary

 TemperatureHumidityPressure
High89 °F (Sep 6, 1:53 PM)100% (Sep 17, 3:53 AM)30.34 "Hg (Sep 17, 3:53 AM)
Low46 °F (Sep 15, 5:53 AM)32% (Sep 7, 2:53 PM)29.73 "Hg (Sep 3, 12:53 AM)
Average66 °F70%30.09 "Hg
* Reported Sep 2 11:53 PM — Sep 17 11:53 PM, Hartford, Weather by CustomWeather, © 2014

Note: Actual official high and low records may vary slightly from our data, if they occured in-between our weather recording intervals... More about our weather records

Advertising

Hartford weather history for previous 24 hours

 ConditionsComfort  
Time TempWeatherWind HumidityBarometerVisibility
11:53 PM
Sep 17
51 °FClear.9 mph92%29.98 "Hg10 mi
10:53 PM53 °FClear.9 mph89%29.98 "Hg10 mi
9:53 PM55 °FClear.No wind83%29.98 "Hg10 mi
8:53 PM56 °FClear.9 mph81%29.99 "Hg10 mi
7:53 PM59 °FSunny.No wind67%29.98 "Hg10 mi
6:53 PM66 °FSunny.7 mph42%29.96 "Hg10 mi
5:53 PM69 °FScattered clouds.7 mph36%29.96 "Hg10 mi
4:53 PM69 °FPartly sunny.9 mph36%29.94 "Hg10 mi
3:53 PM72 °FPartly sunny.7 mph33%29.95 "Hg10 mi
2:53 PM70 °FSunny.7 mph37%29.96 "Hg10 mi
1:53 PM69 °FSunny.9 mph38%29.98 "Hg10 mi
12:53 PM68 °FSunny.6 mph39%30.00 "Hg10 mi
11:53 AM65 °FSunny.N/A47%30.02 "Hg10 mi
10:53 AM62 °FSunny.8 mph56%30.04 "Hg10 mi
9:53 AM59 °FSunny.8 mph72%30.05 "Hg10 mi
8:53 AM52 °FSunny.9 mph93%30.06 "Hg10 mi
7:53 AM48 °FFog.3 mph100%30.05 "Hg0 mi
6:53 AM47 °FClear.No wind97%30.05 "Hg10 mi
5:53 AM46 °FFog.5 mph96%30.03 "Hg6 mi
4:53 AM48 °FFog.3 mph96%30.02 "Hg0 mi
3:53 AM48 °FFog.8 mph100%30.02 "Hg0 mi
2:53 AM51 °FFog.3 mph96%30.02 "Hg4 mi
2:01 AM51 °FFog.N/A96%30.03 "Hg3 mi
Weather by CustomWeather, © 2014

See weather overviewHow to use our weather pages